STARLINK-1547 (46347 NORAD) Tracking and Keplerian Element Data

This shows tracking and keplerian element data for the satellite.

Feedback or suggestion? Click here.




ElementValue
Catalog46347
NameSTARLINK-1547
Epoch Orbit181
Epoch Day336.91667824
Epoch Year2020
RAAN351.4997
Inclination53
Eccentricity0.0002209
Argument of Perigee23.1671
Mean Anonmoly304.9905
Mean Motion15.62718124
Decay Rate4.232E-05
L11 46347U 20062Y 20336.91667824 .00004232 00000-0 52110-4 0 9995
L22 46347 53.0000 351.4997 0002209 23.1671 304.9905 15.62718124 1812

Live tracking and technical data element details for STARLINK-1547 (NORAD 46347). STARLINK-1547 can be tracked NOW for your location showing map with azimuth and elevation plus other details from your city location.

Track the satellite on the map from your city or location and see movement details for azimuth, elevation, latitude, longitude, range, height, and movement on the map or in text.







IsCatalogInMostPopularTable: catalog: 46347, numindb: 26
Update: records affected: 1



GetName: 46347 STARLINK-1547

Hit Count: updated at: Thu, 03 Dec 2020 08:13:10 GMT